Location: Casteau
(50.5142°N, 4.0161°E)
Time: 01:48:27
(UTC+00:00)

MOS 1 Rocket - Pass Details

Date: 18 September 2020
Orbit: 614 x 831 km, 97.4° (Epoch: 24 October)

Event Time Altitude Azimuth Distance (km) Brightness Sun altitude
Rises 18:56:22 0° 14° (NNE) 3,048 6.7 -11.2°
Reaches altitude 10° 18:58:41 10° 16° (NNE) 2,098 5.8 -11.5°
Maximum altitude 19:03:14 76° 102° (ESE) 666 3.0 -12.2°
Drops below altitude 10° 19:07:33 10° 189° (S) 1,992 5.6 -12.9°
Sets 19:09:42 0° 191° (S) 2,881 6.4 -13.2°
